• In Uzbekistan
  • List of Countries
  • For 7 days
  • Water Temperature
  • Satellite Maps
  • Weather Map
  • Weather Widgets
  • user-avatar
    Login

    Hourly Weather Ordino

    Today, 19 January, Thursday

    Time Temperature Precipitation Wind Pressure Humidity
    00:00 -11°C° 0 mm 1 mps 631 mmHg 70%
    01:00 -10°C° 0 mm 1 mps 631 mmHg 70%
    02:00 -10°C° 0 mm 0 mps 631 mmHg 69%
    03:00 -10°C° 0 mm 0 mps 631 mmHg 69%
    04:00 -10°C° 0 mm 0 mps 631 mmHg 69%
    05:00 -10°C° 0 mm 1 mps 631 mmHg 69%
    06:00 -12°C° 0 mm 1 mps 630 mmHg 71%
    07:00 -10°C° 0 mm 1 mps 631 mmHg 67%
    08:00 -7°C° 0 mm 1 mps 633 mmHg 63%
    09:00 -4°C° 0 mm 1 mps 634 mmHg 60%
    10:00 -2°C° 0 mm 1 mps 634 mmHg 60%
    11:00 -3°C° 0 mm 2 mps 635 mmHg 60%
    12:00 -2°C° 0 mm 2 mps 635 mmHg 60%
    13:00 -2°C° 0 mm 2 mps 635 mmHg 63%
    14:00 -2°C° 0 mm 2 mps 635 mmHg 65%
    15:00 -2°C° 0 mm 2 mps 635 mmHg 68%
    16:00 -4°C° 0 mm 2 mps 634 mmHg 74%
    17:00 -6°C° 0 mm 2 mps 633 mmHg 81%
    18:00 -7°C° 0 mm 1 mps 632 mmHg 87%
    19:00 -7°C° 0 mm 1 mps 632 mmHg 87%
    20:00 -7°C° 0 mm 1 mps 633 mmHg 87%
    21:00 -8°C° 0 mm 1 mps 633 mmHg 88%
    22:00 -7°C° 0 mm 1 mps 633 mmHg 88%
    23:00 -7°C° 0 mm 1 mps 633 mmHg 87%

    Tomorrow, 20 January, Friday

    Time Temperature Precipitation Wind Pressure Humidity
    00:00 -8°C° 0 mm 2 mps 633 mmHg 87%
    01:00 -8°C° 0 mm 2 mps 633 mmHg 88%
    02:00 -8°C° 0 mm 2 mps 632 mmHg 88%
    03:00 -9°C° 0 mm 2 mps 632 mmHg 89%
    04:00 -9°C° 0.1 mm 2 mps 632 mmHg 89%
    05:00 -9°C° 0.1 mm 2 mps 632 mmHg 90%
    06:00 -9°C° 0.1 mm 2 mps 632 mmHg 90%
    07:00 -7°C° 0.1 mm 2 mps 633 mmHg 87%
    08:00 -6°C° 0.1 mm 2 mps 633 mmHg 84%
    09:00 -4°C° 0.1 mm 2 mps 634 mmHg 81%
    10:00 -3°C° 0.1 mm 2 mps 635 mmHg 78%
    11:00 -1°C° 0.1 mm 2 mps 635 mmHg 76%
    12:00 0°C° 0.1 mm 3 mps 635 mmHg 73%
    13:00 0°C° 0.2 mm 3 mps 635 mmHg 75%
    14:00 -1°C° 0.2 mm 3 mps 634 mmHg 76%
    15:00 -1°C° 0.2 mm 2 mps 634 mmHg 78%
    16:00 -3°C° 0.2 mm 2 mps 633 mmHg 83%
    17:00 -5°C° 0.2 mm 2 mps 633 mmHg 88%
    18:00 -6°C° 0.2 mm 2 mps 632 mmHg 93%
    19:00 -4°C° 0.3 mm 1 mps 632 mmHg 92%
    20:00 -4°C° 0.3 mm 1 mps 632 mmHg 92%
    21:00 -4°C° 0.3 mm 1 mps 632 mmHg 91%
    22:00 -4°C° 0.4 mm 1 mps 632 mmHg 91%
    23:00 -3°C° 0.4 mm 1 mps 632 mmHg 91%

    Day after tomorrow, 21 January, Saturday

    Time Temperature Precipitation Wind Pressure Humidity
    00:00 -3°C° 0.4 mm 1 mps 632 mmHg 91%
    01:00 -3°C° 0.3 mm 1 mps 632 mmHg 91%
    02:00 -5°C° 0.3 mm 2 mps 632 mmHg 91%
    03:00 -5°C° 0.3 mm 2 mps 632 mmHg 91%
    04:00 -5°C° 0.3 mm 2 mps 632 mmHg 91%
    05:00 -5°C° 0.3 mm 2 mps 632 mmHg 90%
    06:00 -5°C° 0.3 mm 2 mps 632 mmHg 90%
    07:00 -4°C° 0.1 mm 2 mps 632 mmHg 87%
    08:00 -3°C° 0.1 mm 2 mps 633 mmHg 85%
    09:00 -3°C° 0.1 mm 2 mps 633 mmHg 82%
    10:00 -2°C° 0 mm 2 mps 633 mmHg 80%
    11:00 -1°C° 0 mm 2 mps 634 mmHg 77%
    12:00 +1°C° 0 mm 2 mps 634 mmHg 74%
    13:00 +1°C° 0 mm 2 mps 633 mmHg 76%
    14:00 +1°C° 0 mm 2 mps 633 mmHg 79%
    15:00 -1°C° 0 mm 2 mps 632 mmHg 81%
    16:00 -2°C° 0 mm 2 mps 632 mmHg 84%
    17:00 -3°C° 0 mm 2 mps 631 mmHg 87%
    18:00 -5°C° 0 mm 2 mps 631 mmHg 91%
    19:00 -5°C° 0 mm 2 mps 631 mmHg 89%
    20:00 -6°C° 0 mm 2 mps 631 mmHg 88%
    21:00 -6°C° 0 mm 2 mps 631 mmHg 86%
    22:00 -6°C° 0 mm 2 mps 631 mmHg 84%
    23:00 -6°C° 0 mm 2 mps 631 mmHg 82%

    22 January, Sunday

    Time Temperature Precipitation Wind Pressure Humidity
    00:00 -5°C° 0 mm 2 mps 631 mmHg 80%
    01:00 -5°C° 0.2 mm 2 mps 630 mmHg 80%
    02:00 -5°C° 0.2 mm 2 mps 630 mmHg 80%
    03:00 -5°C° 0.2 mm 2 mps 630 mmHg 80%
    04:00 -5°C° 0.4 mm 2 mps 630 mmHg 82%
    05:00 -5°C° 0.4 mm 2 mps 630 mmHg 83%
    06:00 -5°C° 0.4 mm 2 mps 630 mmHg 85%
    07:00 -4°C° 0.2 mm 2 mps 631 mmHg 83%
    08:00 -4°C° 0.2 mm 2 mps 631 mmHg 82%
    09:00 -3°C° 0.2 mm 2 mps 632 mmHg 80%
    10:00 -2°C° 0.1 mm 2 mps 632 mmHg 78%
    11:00 -1°C° 0.1 mm 2 mps 632 mmHg 77%
    12:00 +1°C° 0.1 mm 2 mps 632 mmHg 75%
    13:00 +1°C° 0.3 mm 2 mps 632 mmHg 77%
    14:00 +1°C° 0.3 mm 2 mps 632 mmHg 78%
    15:00 +1°C° 0.3 mm 2 mps 632 mmHg 80%
    16:00 +1°C° 0.5 mm 1 mps 631 mmHg 84%
    17:00 -1°C° 0.5 mm 1 mps 631 mmHg 88%
    18:00 -2°C° 0.5 mm 1 mps 631 mmHg 92%
    19:00 -2°C° 0.6 mm 1 mps 631 mmHg 92%
    20:00 -2°C° 0.6 mm 1 mps 631 mmHg 93%
    21:00 -4°C° 0.6 mm 2 mps 631 mmHg 93%
    22:00 -4°C° 0.5 mm 2 mps 631 mmHg 93%
    23:00 -4°C° 0.5 mm 2 mps 631 mmHg 93%

    23 January, Monday

    Time Temperature Precipitation Wind Pressure Humidity
    00:00 -4°C° 0.5 mm 2 mps 631 mmHg 93%
    01:00 -4°C° 0.4 mm 2 mps 631 mmHg 93%
    02:00 -4°C° 0.4 mm 2 mps 631 mmHg 93%
    03:00 -4°C° 0.4 mm 2 mps 630 mmHg 93%
    04:00 -4°C° 0.5 mm 2 mps 630 mmHg 93%
    05:00 -4°C° 0.5 mm 2 mps 630 mmHg 93%
    06:00 -5°C° 0.5 mm 2 mps 630 mmHg 93%
    07:00 -4°C° 0.4 mm 2 mps 631 mmHg 92%
    08:00 -3°C° 0.4 mm 2 mps 631 mmHg 90%
    09:00 -3°C° 0.4 mm 2 mps 632 mmHg 89%
    10:00 -2°C° 0.2 mm 2 mps 632 mmHg 87%
    11:00 -1°C° 0.2 mm 2 mps 632 mmHg 85%
    12:00 +1°C° 0.2 mm 1 mps 632 mmHg 83%
    13:00 -1°C° 0.2 mm 2 mps 632 mmHg 84%
    14:00 -1°C° 0.2 mm 2 mps 632 mmHg 85%
    15:00 -1°C° 0.2 mm 2 mps 632 mmHg 86%
    16:00 -2°C° 0.2 mm 2 mps 631 mmHg 89%
    17:00 -3°C° 0.2 mm 2 mps 631 mmHg 92%
    18:00 -4°C° 0.2 mm 2 mps 631 mmHg 95%
    19:00 -4°C° 0 mm 2 mps 631 mmHg 94%
    20:00 -4°C° 0 mm 2 mps 631 mmHg 94%
    21:00 -5°C° 0 mm 2 mps 631 mmHg 93%
    22:00 -5°C° 0 mm 2 mps 631 mmHg 93%
    23:00 -5°C° 0 mm 2 mps 631 mmHg 92%

    24 January, Tuesday

    Time Temperature Precipitation Wind Pressure Humidity
    00:00 -5°C° 0 mm 2 mps 630 mmHg 92%
    01:00 -6°C° 0 mm 2 mps 630 mmHg 91%
    02:00 -6°C° 0 mm 2 mps 630 mmHg 91%
    03:00 -6°C° 0 mm 2 mps 630 mmHg 90%
    04:00 -6°C° 0 mm 2 mps 630 mmHg 90%
    05:00 -6°C° 0 mm 2 mps 630 mmHg 89%
    06:00 -6°C° 0 mm 2 mps 630 mmHg 88%
    07:00 -5°C° 0 mm 2 mps 631 mmHg 85%
    08:00 -4°C° 0 mm 2 mps 631 mmHg 82%
    09:00 -3°C° 0 mm 2 mps 632 mmHg 80%
    10:00 -2°C° 0 mm 2 mps 632 mmHg 78%
    11:00 -1°C° 0 mm 2 mps 633 mmHg 76%
    12:00 +2°C° 0 mm 2 mps 633 mmHg 74%
    13:00 +1°C° 0 mm 2 mps 633 mmHg 75%
    14:00 +1°C° 0 mm 2 mps 633 mmHg 76%
    15:00 +1°C° 0 mm 2 mps 632 mmHg 77%
    16:00 -2°C° 0 mm 2 mps 632 mmHg 81%
    17:00 -4°C° 0 mm 2 mps 631 mmHg 85%
    18:00 -7°C° 0 mm 2 mps 630 mmHg 89%
    19:00 -7°C° 0 mm 2 mps 630 mmHg 86%
    20:00 -8°C° 0 mm 2 mps 630 mmHg 83%
    21:00 -8°C° 0 mm 2 mps 630 mmHg 80%
    22:00 -8°C° 0 mm 1 mps 630 mmHg 78%
    23:00 -8°C° 0 mm 1 mps 630 mmHg 76%
    Show more